Weather History for Hanford, CA

Change the Weather History Date:

Tuesday, December 31, 2013

  Actual Average Record
Temperature  
Mean Temperature 47 °F 44 °F  
Max Temperature 64 °F 53 °F 64 °F (2005)
Min Temperature 29 °F 35 °F 24 °F (2010)
Degree Days  
Heating Degree Days 18    
Month to date heating degree days 645  
Since 1 July heating degree days 1025  
Cooling Degree Days 0    
Month to date cooling degree days 0  
Year to date cooling degree days 2057  
Moisture  
Dew Point 31 °F    
Average Humidity 60    
Maximum Humidity 85    
Minimum Humidity 34    
Precipitation  
Precipitation 0.00 in 0.09 in 0.41 in (2004)
Month to date precipitation 0.12 1.63  
Year to date precipitation 1.99 10.10  
Since 1 July precipitation 0.39 3.34  
Snow  
Snow 0.00 in - - ()
Month to date snowfall 0.0  
Since 1 July snowfall 0.0  
Snow Depth 0.00 in    
Sea Level Pressure  
Sea Level Pressure 30.23 in    
Wind  
Wind Speed 2 mph (WNW)    
Max Wind Speed 8 mph    
Max Gust Speed 9 mph    
Visibility 3 miles    
Events      
T = Trace of Precipitation, MM = Missing Value Source: NWS Daily Summary

Daily Weather History Graph

Daily Weather History Graph

Search for Another Location

Airport:

Trip Planner

Search our weather history database for the weather conditions in past years. The results will help you decide how hot, cold, wet, or windy it might be!

Date:

Astronomy

Dec. 31, 2013 Rise Set
Actual Time 7:09 AM PST 4:53 PM PST
Civil Twilight 6:41 AM PST 5:22 PM PST
Nautical Twilight 6:09 AM PST 5:54 PM PST
Astronomical Twilight 5:37 AM PST 6:25 PM PST
Moon 6:08 AM PST (12/31) 4:34 PM PST (12/31)
Length of Visible Light 10h 41m
Length of Day
9h 43m
Waning Crescent, 1% of the Moon is Illuminated
Dec 31
Waning Crescent
Jan 1
New
Jan 7
First Quarter
Jan 15
Full
Jan 23
Last Quarter

Hourly Weather History & Observations

Time (PST) Temp. Windchill Dew Point Humidity Pressure Visibility Wind Dir Wind Speed Gust Speed Precip Events Conditions
12:53 AM 39.0 °F - 30.9 °F 73% 30.25 in 3.0 mi Calm Calm - N/A   Haze
1:53 AM 35.1 °F - 30.0 °F 82% 30.25 in 3.0 mi Calm Calm - N/A   Haze
2:31 AM 35.1 °F - 30.0 °F 82% 30.23 in 2.5 mi Calm Calm - N/A   Haze
2:49 AM 35.6 °F - 30.2 °F 81% 30.22 in 3.0 mi Calm Calm - N/A   Haze
2:53 AM 35.1 °F - 30.9 °F 85% 30.23 in 3.0 mi Calm Calm - N/A   Clear
3:08 AM 34.0 °F - 28.9 °F 82% 30.22 in 2.5 mi Calm Calm - N/A   Haze
3:22 AM 34.0 °F - 28.0 °F 79% 30.22 in 3.0 mi Calm Calm - N/A   Haze
3:53 AM 34.0 °F 31.0 °F 28.9 °F 82% 30.23 in 3.0 mi NW 3.5 mph - N/A   Haze
4:50 AM 30.2 °F 23.4 °F 26.6 °F 86% 30.22 in 2.5 mi ENE 6.9 mph - N/A   Clear
4:53 AM 30.9 °F 25.2 °F 27.0 °F 85% 30.23 in 2.5 mi ENE 5.8 mph - N/A   Clear
5:53 AM 33.1 °F - 28.9 °F 85% 30.25 in 2.5 mi Calm Calm - N/A   Clear
6:10 AM 30.9 °F - 27.0 °F 85% 30.24 in 1.5 mi Calm Calm - N/A   Clear
6:53 AM 30.0 °F 26.5 °F 27.0 °F 88% 30.25 in 2.0 mi SSW 3.5 mph - N/A   Clear
7:27 AM 32.0 °F - 28.9 °F 88% 30.25 in 1.5 mi Calm Calm - N/A   Clear
7:53 AM 32.0 °F 28.7 °F 28.0 °F 85% 30.26 in 1.2 mi West 3.5 mph - N/A   Clear
8:16 AM 36.0 °F - 30.9 °F 82% 30.26 in 2.0 mi Calm Calm - N/A   Haze
8:43 AM 39.0 °F - 30.0 °F 70% 30.26 in 3.0 mi Calm Calm - N/A   Haze
8:53 AM 41.0 °F - 30.9 °F 67% 30.27 in 3.0 mi Calm Calm - N/A   Haze
9:53 AM 46.9 °F - 33.1 °F 59% 30.30 in 3.0 mi NW 5.8 mph - N/A   Haze
10:53 AM 53.1 °F - 35.1 °F 50% 30.28 in 3.0 mi NNW 5.8 mph - N/A   Haze
11:02 AM 54.0 °F - 35.1 °F 49% 30.27 in 1.8 mi NNW 4.6 mph - N/A   Haze
11:11 AM 55.0 °F - 35.1 °F 47% 30.26 in 3.0 mi Variable 3.5 mph - N/A   Haze
11:53 AM 57.0 °F - 35.1 °F 44% 30.25 in 4.0 mi WNW 4.6 mph - N/A   Haze
12:53 PM 61.0 °F - 35.1 °F 38% 30.21 in 4.0 mi WNW 5.8 mph - N/A   Haze
1:53 PM 62.1 °F - 33.1 °F 34% 30.18 in 4.0 mi WNW 4.6 mph - N/A   Haze
2:53 PM 63.0 °F - 33.1 °F 33% 30.18 in 4.0 mi Calm Calm - N/A   Haze
3:53 PM 63.0 °F - 34.0 °F 34% 30.16 in 4.0 mi SSW 5.8 mph - N/A   Haze
4:53 PM 57.9 °F - 33.1 °F 39% 30.17 in 3.0 mi Calm Calm - N/A   Haze
5:53 PM 51.1 °F - 34.0 °F 52% 30.18 in 4.0 mi Calm Calm - N/A   Haze
6:53 PM 48.0 °F - 35.1 °F 61% 30.18 in 4.0 mi South 3.5 mph - N/A   Haze
7:53 PM 46.0 °F - 35.1 °F 66% 30.19 in 4.0 mi Calm Calm - N/A   Haze
8:53 PM 44.1 °F - 34.0 °F 68% 30.19 in 3.0 mi Calm Calm - N/A   Haze
9:53 PM 42.1 °F - 34.0 °F 73% 30.20 in 3.0 mi Calm Calm - N/A   Haze
10:53 PM 37.9 °F - 30.0 °F 73% 30.21 in 3.0 mi Calm Calm - N/A   Haze
11:53 PM 37.0 °F - 30.0 °F 76% 30.21 in 3.0 mi Calm Calm - N/A   Haze